Theta_e
326 325 325 324 324 323 323 324 324 324 323 323 322 321 320 319 319 319 319 319 319 319 319 320 321 323 322 316 318 330 345 338 322 320 319 321 321 321 320 325 329 328 329 330 331 332 328
326 326 325 325 324 323 323 323 323 323 323 323 322 322 320 319 319 319 319 318 318 319 320 320 321 323 319 315 332 328 320 320 321 320 321 323 322 326 326 328 329 332 330 329 329 328 329
326 326 326 324 324 323 323 323 322 322 322 322 322 322 321 319 319 319 318 318 318 318 320 321 322 324 323 322 331 330 324 319 322 323 321 326 327 324 331 328 334 332 325 328 327 327 325
325 325 325 325 323 323 322 322 322 322 321 321 321 321 321 320 319 318 317 316 317 319 322 322 323 325 322 329 332 327 325 323 322 324 322 325 328 323 328 332 329 326 325 319 325 326 327
325 325 325 325 324 322 322 322 322 321 321 321 320 320 320 320 319 318 316 316 319 324 325 324 323 324 320 327 321 325 324 318 320 321 323 326 323 322 330 325 317 317 313 317 320 327 325
325 325 325 324 324 323 322 321 321 320 321 320 320 319 319 319 318 316 315 315 323 323 323 327 327 321 324 319 321 325 326 320 317 319 318 319 319 322 324 316 304 304 310 315 318 324 324
326 325 325 324 324 323 322 321 321 320 320 320 319 318 318 318 316 315 315 323 322 321 327 319 319 319 319 321 324 320 322 318 317 316 312 316 313 315 318 318 317 314 314 313 323 327 323
325 325 325 324 323 323 322 321 320 320 321 319 319 318 318 317 315 314 315 320 323 323 315 325 322 320 320 319 313 317 321 312 311 310 314 313 309 320 322 319 318 313 314 314 320 325 321
324 324 323 323 323 322 320 320 320 320 320 320 319 318 317 316 314 313 317 322 329 327 315 320 319 318 316 318 313 314 317 315 311 310 311 310 313 319 321 318 318 318 313 313 314 321 323
322 322 322 322 321 321 319 319 318 319 319 319 319 318 316 313 314 324 318 325 328 327 310 314 314 319 319 318 313 319 319 316 312 309 312 312 315 314 312 311 314 309 316 312 311 312 312
321 321 320 320 320 319 318 318 318 318 318 318 318 317 315 313 321 318 324 328 328 324 301 314 315 326 321 315 315 314 319 315 308 310 311 309 310 310 310 310 314 312 316 313 314 313 313
320 320 320 319 319 318 317 318 317 317 317 317 317 316 313 318 321 323 324 326 324 308 301 311 316 315 314 315 316 315 313 316 315 310 310 310 315 312 311 313 313 317 313 313 314 312 305
319 319 319 319 318 317 317 317 316 317 317 317 315 313 313 322 320 325 322 319 307 302 316 311 311 314 313 312 312 311 309 308 306 303 304 307 308 313 313 310 314 313 309 302 302 303 302
318 318 318 318 317 317 317 317 317 316 316 315 312 310 318 325 327 326 320 312 302 310 310 316 314 313 309 313 312 309 308 306 310 309 307 304 301 309 313 310 310 310 308 302 298 298 302
317 317 317 317 316 316 317 317 316 316 316 314 311 327 327 329 327 323 314 304 307 311 316 314 313 309 309 312 312 311 309 309 311 311 305 306 305 312 313 313 314 310 307 312 305 307 303
317 317 315 315 316 316 316 316 316 316 316 313 317 324 324 328 326 318 309 302 310 316 316 317 309 311 307 310 310 310 310 314 312 315 314 311 305 311 311 313 313 310 313 305 306 298 298
316 316 316 315 315 316 316 316 316 316 314 313 319 320 323 326 323 311 304 307 311 315 315 313 312 310 311 310 311 310 310 314 316 314 315 313 310 309 311 309 308 309 307 308 308 306 300
316 316 315 315 315 316 317 317 316 314 311 317 321 315 323 324 309 309 305 309 307 313 316 312 314 313 311 312 311 311 310 313 318 317 311 313 310 306 308 315 316 314 311 310 304 304 307
316 316 315 316 315 316 317 317 316 314 312 316 315 318 325 320 305 307 311 310 312 311 312 311 312 315 315 312 309 313 314 318 318 316 313 314 309 303 306 312 315 311 313 311 310 309 308
315 315 315 315 316 317 317 317 315 314 313 316 317 313 317 318 314 310 310 311 310 314 312 312 312 315 313 312 314 312 313 317 318 317 326 320 311 308 302 307 312 311 313 313 310 305 306
314 314 315 316 317 318 318 317 316 315 314 316 320 316 318 311 315 314 313 311 309 309 314 313 310 311 312 310 311 311 314 315 317 319 317 314 307 309 310 312 312 311 310 310 309 310 306
314 314 315 316 317 317 318 318 318 316 312 319 316 314 317 314 315 313 311 311 310 311 312 310 310 310 312 311 312 311 314 314 314 316 314 316 308 310 308 311 312 308 309 309 309 309 308
313 314 314 315 317 318 319 319 319 316 313 321 323 322 318 311 312 311 311 312 311 313 314 315 313 312 312 313 317 318 318 319 318 316 315 313 310 309 304 309 310 305 309 309 310 312 311
313 313 314 315 316 318 319 319 320 319 314 320 321 321 313 308 311 311 313 314 312 313 312 315 317 314 316 322 319 318 318 318 317 317 318 312 315 311 305 308 298 310 316 314 311 312 313
313 313 313 316 317 319 319 320 321 320 316 319 321 318 315 309 312 312 313 313 314 315 314 313 315 318 321 317 310 308 310 311 313 315 315 316 312 309 304 303 308 311 313 311 310 308 314
312 312 313 315 318 319 319 320 321 318 316 318 321 323 317 310 309 314 312 314 311 311 312 315 320 322 318 311 307 302 300 307 306 309 315 314 315 310 308 302 299 311 314 317 316 305 318
312 312 313 316 318 319 320 322 319 317 317 316 318 324 316 309 315 314 310 309 315 313 311 314 315 315 318 309 304 303 302 309 305 306 309 309 311 307 307 306 307 316 317 318 304 311 323
312 312 314 316 316 317 318 317 316 316 316 315 319 324 316 310 313 316 316 313 313 312 307 311 312 314 313 307 306 304 304 306 308 313 309 309 307 307 309 305 302 318 316 310 320 321 320
311 312 314 315 315 315 316 315 315 315 315 314 314 321 321 312 313 319 319 320 319 318 314 314 312 313 315 310 310 311 306 308 309 303 316 306 311 307 310 309 325 321 320 322 322 319 320
Wind_Speed
16 18 18 18 17 18 18 18 17 16 16 16 16 15 15 15 14 14 13 12 13 13 13 12 11 10 8 9 10 10 9 7 9 12 14 14 16 15 5 3 6 7 4 9 10 3 18
16 16 18 17 18 19 19 19 19 18 18 17 16 15 15 15 14 13 13 14 13 14 13 11 9 8 7 12 11 12 12 11 13 15 15 15 14 12 8 10 12 11 11 13 9 7 7
15 15 16 19 19 19 19 20 20 20 20 19 18 17 16 16 15 15 14 14 14 14 13 10 7 8 10 14 1 9 11 12 13 14 15 12 12 15 5 13 14 16 11 12 9 10 5
15 15 15 15 19 19 20 20 20 20 20 20 21 18 17 17 17 16 15 15 15 14 12 8 6 9 10 6 5 6 11 13 13 11 14 16 5 14 4 17 13 5 2 4 10 13 7
15 15 15 15 16 19 20 20 20 19 18 19 21 19 18 17 17 15 15 16 15 12 7 6 7 8 15 6 11 11 9 11 11 12 12 10 11 16 13 7 7 8 8 6 8 14 9
15 15 15 15 15 15 19 19 21 21 19 21 20 22 19 18 17 16 17 13 8 8 7 10 11 10 11 13 12 12 10 11 11 13 12 12 13 14 6 8 2 10 16 10 6 13 11
14 15 15 15 15 16 17 18 20 21 23 22 22 23 21 19 17 15 14 6 7 7 12 14 12 13 7 6 6 8 9 11 12 12 13 15 13 13 21 14 22 18 16 14 13 18 12
14 14 14 14 14 15 16 18 20 19 21 23 23 24 23 20 19 15 7 8 8 9 12 20 19 9 3 5 8 11 10 12 14 13 15 15 13 17 20 21 23 11 9 12 6 12 8
15 15 15 15 16 15 20 18 18 20 18 22 23 24 22 22 22 6 11 16 10 10 9 12 10 12 8 12 10 13 14 15 12 15 16 17 11 10 25 18 28 18 9 15 5 11 3
15 15 15 16 16 16 20 19 21 21 20 21 22 21 20 26 3 7 13 18 8 7 8 14 14 10 11 12 9 16 14 13 8 14 16 13 16 3 7 10 9 12 9 4 3 5 5
16 15 15 16 17 17 18 21 22 23 24 25 24 22 20 7 13 9 7 3 8 5 8 16 15 10 11 10 12 11 12 14 14 10 12 10 14 13 7 12 10 11 3 9 9 10 8
15 16 16 17 17 18 18 18 22 23 25 26 26 22 19 2 8 16 14 9 7 8 10 12 11 11 14 12 9 8 9 13 11 13 12 16 11 8 11 11 12 9 7 14 14 13 13
16 17 17 18 18 18 19 19 23 23 23 27 25 26 10 9 8 8 8 7 7 11 8 12 15 13 13 13 9 7 11 12 12 9 11 13 16 7 12 12 8 8 13 12 4 4 9
16 16 17 18 18 19 19 20 20 22 25 26 29 31 9 10 7 12 8 8 11 13 18 6 11 15 14 15 13 12 12 12 15 17 12 12 13 15 12 13 13 13 15 9 12 4 4
16 16 17 18 19 20 20 21 21 24 27 27 31 8 6 8 11 8 8 12 12 19 11 6 12 15 15 13 7 13 16 15 16 14 16 5 2 16 13 9 12 9 10 14 9 18 10
15 16 18 19 20 21 21 21 21 24 27 26 10 10 10 9 6 7 9 17 18 24 12 11 10 11 11 14 13 12 13 12 15 12 13 17 6 11 11 4 9 13 14 9 6 3 6
16 16 17 20 19 20 20 21 22 24 27 33 5 7 6 6 6 7 11 16 19 21 8 9 14 18 13 16 16 12 9 13 11 10 9 14 9 4 11 9 13 10 9 9 12 10 6
15 15 16 17 18 20 21 21 21 21 28 12 7 6 7 6 8 8 12 19 20 18 10 6 15 18 20 20 11 16 14 12 13 10 11 13 11 7 14 9 13 7 6 7 8 7 7
14 15 16 16 17 18 19 19 19 16 14 9 8 10 6 7 8 12 17 19 20 18 11 14 14 18 16 18 16 13 11 9 10 8 5 8 8 10 10 9 3 5 8 12 14 13 11
15 15 16 17 18 17 18 18 19 15 8 9 7 5 7 7 11 17 15 14 13 12 14 18 17 15 17 16 18 16 13 7 10 8 6 5 14 10 9 5 15 12 11 14 6 9 10
15 16 17 17 19 18 17 17 18 16 10 6 6 5 11 8 3 10 12 14 16 12 17 8 15 15 15 14 16 15 17 12 11 12 5 7 14 15 18 13 12 8 9 11 7 7 9
15 16 16 17 18 18 17 17 18 16 22 6 7 9 12 13 16 14 11 12 16 16 18 14 14 15 13 17 19 18 16 8 9 11 11 12 11 13 16 16 15 8 9 11 12 13 11
15 16 16 16 17 17 16 16 15 13 12 7 10 11 9 10 14 12 11 13 15 12 16 18 11 14 14 9 13 15 15 18 14 9 10 13 13 11 13 15 12 12 8 11 13 14 12
14 16 16 17 17 17 15 15 14 10 8 9 10 11 9 11 13 14 11 15 11 12 13 16 13 13 18 15 15 17 16 20 20 18 16 17 11 10 11 1 8 14 6 6 7 6 7
15 15 16 16 18 17 13 13 12 7 8 9 9 7 9 11 13 16 17 11 12 13 15 16 17 18 16 13 10 14 13 19 22 21 15 13 24 12 11 12 7 22 8 1 10 5 3
15 15 16 17 17 14 13 13 8 6 8 8 8 5 7 10 12 20 16 16 12 13 14 17 18 13 15 8 11 17 15 20 21 21 19 16 14 6 4 9 12 12 15 7 5 6 7
15 15 16 18 15 13 13 9 2 6 8 7 8 8 7 9 16 11 11 11 12 13 9 10 14 10 7 8 12 15 17 21 19 17 16 14 9 11 12 20 9 8 12 8 6 3 5
14 15 15 14 12 11 8 6 6 6 8 7 7 5 6 5 16 19 15 13 11 11 9 12 10 6 8 13 14 15 16 17 17 17 15 6 7 13 12 12 12 10 5 5 6 3 3
14 14 14 10 10 9 7 6 6 7 7 6 5 6 5 4 13 20 21 20 18 16 12 7 14 14 4 8 8 9 12 15 9 15 5 12 8 6 15 6 8 8 6 6 6 3 0
Wind_Direction
12 15 14 12 9 7 3 5 2 358 357 352 347 343 344 338 328 319 313 309 305 297 295 297 302 312 284 216 248 134 156 165 186 215 240 247 249 260 331 135 192 4 134 120 127 111 137
6 6 9 7 4 3 0 359 358 357 354 349 343 341 340 337 329 319 313 306 300 295 291 290 293 302 246 252 101 136 179 178 221 214 241 251 261 313 8 246 115 188 142 137 157 124 76
2 1 2 4 1 358 357 356 355 354 351 348 343 340 339 336 331 323 313 305 298 291 285 278 271 265 261 265 55 151 173 200 218 234 245 240 277 303 125 331 122 142 159 157 155 151 119
357 356 356 355 359 355 353 351 351 351 349 346 344 338 336 333 328 322 313 305 296 288 275 258 248 248 264 189 263 180 194 201 219 242 266 293 300 274 152 214 263 149 55 185 134 171 150
353 352 351 350 353 353 350 349 348 346 344 341 340 337 333 330 325 316 312 305 293 288 232 192 224 228 271 115 218 216 204 216 207 232 240 278 274 264 274 126 57 332 270 200 149 192 150
349 347 347 347 345 342 348 346 346 344 343 341 338 335 330 328 324 319 310 289 301 291 212 208 259 257 245 231 191 197 192 236 203 223 225 235 243 241 149 76 92 309 296 289 162 183 196
344 341 341 342 342 341 342 342 343 342 341 339 336 334 327 326 323 322 314 207 204 195 225 234 151 236 150 96 108 210 192 217 204 214 223 211 244 241 109 99 162 199 248 251 195 204 165
336 332 334 334 335 336 341 339 339 335 341 337 334 332 324 324 320 318 268 250 23 329 293 217 250 275 303 138 185 195 186 211 200 212 223 237 236 115 122 121 234 198 235 284 136 148 129
344 340 337 335 334 332 341 332 326 326 326 336 331 326 322 320 318 269 239 268 332 319 281 236 203 223 198 201 207 173 198 222 195 222 227 248 238 148 146 170 215 219 159 260 131 167 110
340 339 338 336 336 337 338 333 330 327 326 322 325 324 325 327 275 297 228 239 262 296 277 191 196 230 164 227 225 156 192 216 235 232 238 236 270 251 295 254 285 282 346 301 236 215 205
341 340 340 339 338 335 335 335 331 331 330 326 322 322 321 313 306 268 354 308 324 262 280 130 177 137 170 220 114 185 183 233 260 224 257 238 238 283 245 273 260 269 231 295 266 247 158
344 343 342 340 337 335 332 331 333 331 329 325 319 315 329 187 213 259 299 292 250 237 250 169 140 192 190 215 204 127 192 242 242 274 232 270 300 252 257 235 256 284 313 257 251 245 231
345 342 338 339 336 333 333 332 334 330 323 320 314 306 297 296 244 348 278 255 232 250 117 158 167 185 205 197 183 162 194 207 229 223 214 214 254 213 257 249 202 238 251 257 262 345 296
344 342 342 340 338 336 333 332 328 327 324 317 313 308 240 229 272 244 256 222 239 244 244 155 167 185 207 223 186 167 202 217 234 249 268 217 198 202 188 249 220 208 251 266 253 127 230
345 343 342 341 337 338 335 332 331 330 327 321 311 286 219 214 220 236 238 223 224 263 323 319 177 194 207 233 229 177 207 221 215 212 262 249 288 157 188 214 260 266 221 260 288 260 242
340 341 342 341 339 338 335 333 330 330 328 320 314 291 253 120 180 218 233 242 243 252 315 314 295 206 255 205 192 242 201 222 259 191 253 287 169 163 176 239 275 286 303 292 230 298 344
339 337 337 341 337 333 334 334 333 336 333 317 263 253 102 146 187 222 231 237 250 262 290 289 279 283 241 261 204 205 230 229 191 188 220 269 280 148 162 196 243 195 229 258 290 298 309
335 332 334 337 335 332 332 332 334 342 339 340 301 274 128 194 211 227 240 244 267 288 284 229 278 286 295 299 249 237 237 244 165 225 187 237 276 224 205 231 213 290 297 255 239 270 318
333 331 331 332 333 330 331 330 332 345 14 324 299 297 147 212 236 231 228 237 259 269 251 267 247 257 275 283 291 276 245 234 141 178 217 235 244 265 231 206 176 270 282 276 271 279 228
332 332 330 327 325 332 330 329 328 334 5 323 277 276 189 190 259 292 297 293 256 238 257 280 282 271 264 262 266 279 277 260 147 185 76 300 283 260 301 135 218 252 252 261 279 281 297
332 330 328 328 329 329 329 325 323 326 334 293 246 323 356 294 302 301 281 286 290 293 261 239 266 277 272 277 273 260 263 265 199 139 190 228 256 283 287 205 201 244 295 296 279 293 305
329 327 327 325 327 326 327 327 325 331 328 241 295 345 340 304 299 284 278 272 276 277 286 256 216 259 249 260 270 274 313 295 278 214 224 225 240 251 280 293 298 229 230 254 270 281 272
325 324 323 322 323 326 326 327 323 339 337 292 355 337 308 288 292 283 265 266 271 253 267 282 297 290 281 276 348 338 316 306 295 221 259 223 239 230 252 272 307 290 243 244 257 254 264
322 321 322 322 320 320 321 322 319 336 357 315 305 315 294 290 291 283 296 300 315 308 320 310 297 285 270 321 342 310 274 268 267 262 176 239 282 244 254 285 288 283 271 198 247 280 302
320 320 320 317 316 310 312 314 313 322 339 302 311 335 301 291 298 294 302 294 292 281 271 268 277 291 312 308 305 287 269 266 257 247 250 211 190 240 242 247 272 242 317 99 259 206 351
319 321 319 321 321 319 316 306 312 330 336 296 304 324 288 296 266 352 325 310 309 306 287 247 237 242 256 275 267 257 249 253 240 242 250 250 254 212 279 250 252 248 177 244 65 258 70
318 320 321 324 329 331 333 314 339 335 342 311 295 285 302 294 275 330 328 335 319 322 297 297 338 316 224 252 257 254 252 248 248 244 244 227 241 236 202 235 244 274 116 115 226 82 82
318 320 322 325 332 336 344 354 351 347 353 323 302 331 309 282 289 289 303 293 293 289 292 326 315 262 268 260 247 251 251 254 261 240 239 284 275 226 246 253 233 80 49 216 92 160 281
318 319 321 323 331 334 342 348 348 347 344 346 284 338 321 260 286 304 285 279 281 287 295 281 277 296 346 320 349 307 267 260 240 271 265 258 194 303 305 237 115 111 123 72 48 350 319